[[{"header":{"parameterUnit":"m.s-1","parameterCategory":1,"la1":30.2991,"la2":30.254,"lo1":-89.0895,"lo2":-89.0444,"dy":0.0017,"dx":0.0017,"nx":28,"ny":28,"refTime":"2025-03-16T21:00:00:Z","depth":0,"parameterNumber":2,"parameterNumberName":"U-component_of_WINDS"},"data":[0,0,0,0,0,0,0,0,0,0,0,0,0,0,0,0,0,0,0,0,0,0,0,0,0,0,0,0,0,0,0,0,0,0,0,0,0,0,0,0,0,0,0,0,0,0,0,0,0,0,0,0,0,0,0,0,0,0,3.0052,3.0053,0,3.0125,3.0126,3.0126,3.0101,3.0099,3.0098,3.0096,3.0168,3.0172,3.0175,0,0,0,0,0,0,0,0,0,0,0,0,0,2.989,2.9893,3.0052,3.0053,3.0054,3.0125,3.0126,3.0127,3.0101,3.0099,3.0097,3.0095,3.0167,3.0171,3.0176,0,0,0,0,0,0,0,0,0,0,0,0,0,2.9961,2.9894,3.0052,3.005,3.005,3.0125,3.0126,3.0127,3.0102,3.0099,3.0097,3.0094,3.0166,3.0171,3.0176,3.0256,0,0,3.0192,3.0194,0,0,0,0,0,0,0,0,2.9957,2.9967,3.0049,3.005,3.0051,3.0101,3.0095,3.017,3.0102,3.0082,3.0096,3.0093,3.0148,3.0154,3.0173,3.026,3.0263,3.0192,3.0195,3.0198,3.0199,0,0,0,0,0,0,0,2.9952,2.9964,3.0081,3.0051,3.0052,3.0045,3.0052,3.0109,3.0128,3.0084,3.0082,3.0091,3.0148,3.0168,3.0175,3.0264,3.0192,3.0197,3.02,3.0202,3.0419,3.0421,0,0,0,0,0,0,2.9947,2.996,3.0079,3.0083,2.9997,3.005,3.0058,3.0088,3.0127,3.0131,3.0093,3.009,3.0161,3.0169,3.0177,3.0273,3.0198,3.0202,3.0205,3.0416,3.0419,3.0422,0,0,0,0,0,0,2.9944,2.9958,3.0076,3.0021,3.0036,3.0055,3.0088,3.009,3.0111,3.0134,3.0137,3.0111,3.0159,3.017,3.0237,3.0275,3.0205,3.0209,3.0413,3.0417,3.0421,3.0465,0,0,0,0,0,0,2.9939,2.9957,2.9988,3.0022,3.0039,3.0134,3.0091,3.0093,3.012,3.0116,3.0151,3.0155,3.0158,3.0229,3.0242,3.0281,3.0213,3.0409,3.0415,3.0419,3.046,3.047,3.0478,0,0,0,0,0,2.9934,2.9997,2.999,3.0004,3.0078,3.0137,3.0146,3.0149,3.0123,3.0154,3.0169,3.0154,3.0269,3.0236,3.025,3.0291,3.0407,3.0413,3.0419,3.0456,3.0468,3.0478,0,0,0,0,0,0,2.9966,3.0002,2.9994,3.007,3.0101,3.0132,3.0171,3.0162,3.02,3.0195,3.0196,3.0205,3.0273,3.0289,3.0252,3.0371,3.0334,3.0343,3.0357,3.0369,3.0378,3.0372,3.0218,0,0,0,0,0,2.9983,3.0028,3.0056,3.0121,3.0137,3.0152,3.0178,3.0177,3.0209,3.0221,3.0241,3.0272,3.0315,3.0343,3.0384,3.0463,3.0469,3.0498,3.0507,3.0515,3.0522,3.0564,3.0576,3.0442,3.0442,3.0442,0,0,3.0016,3.0041,3.007,3.0128,3.0152,3.0198,3.0163,3.0213,3.0247,3.0229,3.0293,3.0309,3.0343,3.0416,3.0449,3.0431,3.0561,3.0522,3.0528,3.0531,3.0571,3.0584,3.0595,3.0446,3.0445,3.0445,0,0,3.0101,3.0125,3.0182,3.0206,3.0243,3.0252,3.0266,3.0299,3.0309,3.0374,3.036,3.0401,3.0475,3.05,3.0522,3.0618,3.0604,3.0631,3.0678,3.0719,3.0729,3.0739,3.0771,3.0783,3.0639,3.0639,3.0639,0,3.0138,3.0208,3.0212,3.0263,3.0289,3.0276,3.0332,3.0356,3.0404,3.0421,3.0401,3.0494,3.0516,3.0594,3.0618,3.0637,3.0652,3.0626,3.0728,3.0737,3.0746,3.0777,3.079,3.0641,3.0641,3.0641,3.0641,0,3.0251,3.03,3.0341,3.0388,3.0419,3.0473,3.0484,3.0514,3.0512,3.0523,3.0589,3.0615,3.0661,3.068,3.0678,3.0758,3.0746,3.0727,3.069,3.0762,3.0791,3.0803,3.0646,3.0645,3.0644,3.0643,0,0,3.0357,3.0406,3.0421,3.0442,3.0482,3.0519,3.0572,3.0618,3.0643,3.0677,3.0721,3.0785,3.0768,3.0793,3.0794,3.083,3.0903,3.0807,3.0808,3.0822,3.0991,3.1004,3.1017,3.0895,3.0897,3.0899,3.0988,0,3.0444,3.0538,3.0543,3.0628,3.0672,3.0661,3.0707,3.0736,3.0748,3.0788,3.0801,3.0846,3.082,3.0836,3.0871,3.0886,3.0936,3.088,3.0935,3.0936,3.0925,3.1033,3.1046,3.1128,3.0999,3.1001,3.1003,0,3.0558,3.0595,3.0685,3.0718,3.0737,3.0779,3.082,3.0858,3.0891,3.0898,3.0926,3.0922,3.0976,3.0939,3.1013,3.0974,3.0997,3.1008,3.1011,3.1015,3.0972,3.1038,3.1155,3.1166,3.1021,3.1019,3.1018,0,3.0624,3.0698,3.076,3.0779,3.082,3.0849,3.0867,3.0898,3.0924,3.0961,3.0978,3.1021,3.1044,3.1077,3.1084,3.1056,3.1157,3.1121,3.1163,3.1163,3.1183,3.1181,3.1304,3.1201,3.1201,3.12,3.12,0,3.072,3.0774,3.0791,3.0829,3.089,3.0896,3.0956,3.0972,3.0999,3.104,3.1033,3.1071,3.1079,3.1119,3.1125,3.1185,3.1195,3.1201,3.1202,3.1201,3.12,3.1214,3.1208,3.1204,3.1203,3.1202,3.1202,0,3.0803,3.0817,3.0884,3.0917,3.0927,3.097,3.0999,3.1035,3.1047,3.1099,3.1112,3.113,3.1177,3.1188,3.1243,3.1247,3.1317,3.1313,3.1306,3.1305,3.1346,3.1342,3.1481,3.1499,3.1386,3.1387,3.1388,0,3.0862,3.0904,3.0942,3.097,3.0989,3.1033,3.1061,3.1068,3.1097,3.1138,3.1169,3.1215,3.1252,3.1327,3.1345,3.1388,3.1384,3.143,3.139,3.1387,3.1382,3.1379,3.1382,3.1436,3.1438,3.1439,3.1439,0,3.0966,3.097,3.101,3.1053,3.1087,3.1121,3.1153,3.1176,3.1187,3.122,3.1268,3.1297,3.1354,3.1399,3.1442,3.146,3.1451,3.1452,3.1464,3.1462,3.1456,3.1458,3.1325,3.1448,3.1447,3.1447,3.1446,3.1446,3.1038,3.1074,3.1107,3.1152,3.1177,3.1208,3.1243,3.126,3.1301,3.1348,3.135,3.1402,3.1433,3.149,3.151,3.1551,3.1536,3.1554,3.1558,3.1561,3.1564,3.1451,3.1559,3.1558,3.1558,3.1558,3.1558,0,3.1139,3.1159,3.1201,3.1247,3.1282,3.1273,3.1308,3.1338,3.1384,3.1414,3.1451,3.1506,3.155,3.1572,3.1616,3.1644,3.1641,3.1655,3.1652,3.1656,3.1575,3.156,3.1656,3.1656,3.1656,3.1656,3.1656,3.1656,3.1196,3.1256,3.1265,3.1338,3.1358,3.1409,3.143,3.1458,3.1483,3.1544,3.1581,3.1596,3.1623,3.1668,3.1708,3.1713,3.1729,3.1744,3.1748,3.1672,3.1662,3.1652,3.1637,3.1748,3.1748,3.1824,3.1825,3.1826]},{"header":{"parameterUnit":"m.s-1","parameterCategory":1,"la1":30.2991,"la2":30.254,"lo1":-89.0895,"lo2":-89.0444,"dy":0.0017,"dx":0.0017,"nx":28,"ny":28,"refTime":"2025-03-16T21:00:00:Z","depth":0,"parameterNumber":3,"parameterNumberName":"V-component_of_WINDS"},"data":[0,0,0,0,0,0,0,0,0,0,0,0,0,0,0,0,0,0,0,0,0,0,0,0,0,0,0,0,0,0,0,0,0,0,0,0,0,0,0,0,0,0,0,0,0,0,0,0,0,0,0,0,0,0,0,0,0,0,-3.8567,-3.857,0,-3.8802,-3.8805,-3.8807,-3.8802,-3.8799,-3.8796,-3.8793,-3.9037,-3.9046,-3.9055,0,0,0,0,0,0,0,0,0,0,0,0,0,-3.8118,-3.8126,-3.8567,-3.857,-3.8573,-3.8801,-3.8805,-3.8808,-3.8803,-3.8799,-3.8795,-3.8791,-3.9034,-3.9045,-3.9056,0,0,0,0,0,0,0,0,0,0,0,0,0,-3.8329,-3.8129,-3.8566,-3.8598,-3.8603,-3.8801,-3.8805,-3.8809,-3.8804,-3.8799,-3.8794,-3.879,-3.903,-3.9044,-3.9058,-3.9241,0,0,-3.9101,-3.9107,0,0,0,0,0,0,0,0,-3.8317,-3.8345,-3.859,-3.8596,-3.8602,-3.8768,-3.8736,-3.8954,-3.8805,-3.8728,-3.8793,-3.8787,-3.8951,-3.8972,-3.9026,-3.9252,-3.9263,-3.9102,-3.9111,-3.9117,-3.9121,0,0,0,0,0,0,0,-3.8302,-3.8335,-3.866,-3.8594,-3.8601,-3.8601,-3.8626,-3.8777,-3.8864,-3.8734,-3.8734,-3.8762,-3.8954,-3.9013,-3.9032,-3.9267,-3.9102,-3.9115,-3.9123,-3.9129,-3.9657,-3.9662,0,0,0,0,0,0,-3.8281,-3.8323,-3.8652,-3.8667,-3.8445,-3.8613,-3.8641,-3.872,-3.8862,-3.8879,-3.8766,-3.8761,-3.8991,-3.9016,-3.9041,-3.9266,-3.9117,-3.913,-3.9138,-3.9652,-3.9658,-3.9664,0,0,0,0,0,0,-3.8271,-3.831,-3.8643,-3.8495,-3.8538,-3.8626,-3.8714,-3.8727,-3.8786,-3.8886,-3.8901,-3.881,-3.8988,-3.9021,-3.9192,-3.9275,-3.9137,-3.915,-3.9645,-3.9654,-3.9661,-3.9718,0,0,0,0,0,0,-3.8258,-3.8307,-3.8376,-3.8497,-3.8546,-3.8789,-3.8719,-3.8735,-3.881,-3.8805,-3.8931,-3.8948,-3.8987,-3.917,-3.9206,-3.9292,-3.9161,-3.9638,-3.9649,-3.9659,-3.9709,-3.9727,-3.9742,0,0,0,0,0,-3.8242,-3.8383,-3.838,-3.8419,-3.8634,-3.8794,-3.8822,-3.8863,-3.8816,-3.8888,-3.8952,-3.8944,-3.9259,-3.9188,-3.9228,-3.9319,-3.9633,-3.9646,-3.9658,-3.9701,-3.9723,-3.9742,0,0,0,0,0,0,-3.8271,-3.8399,-3.8397,-3.8581,-3.8676,-3.8792,-3.8884,-3.8885,-3.8996,-3.8987,-3.9035,-3.9063,-3.9235,-3.9294,-3.9212,-3.9505,-3.9441,-3.9462,-3.946,-3.9482,-3.9498,-3.9481,-3.9172,0,0,0,0,0,-3.8298,-3.8416,-3.8522,-3.8674,-3.8722,-3.8795,-3.8866,-3.8889,-3.899,-3.9031,-3.9108,-3.9208,-3.9329,-3.9409,-3.9526,-3.9717,-3.9746,-3.98,-3.9816,-3.9829,-3.9848,-3.9955,-3.9981,-3.9705,-3.9705,-3.9705,0,0,-3.8357,-3.8441,-3.8513,-3.8682,-3.8759,-3.8881,-3.8829,-3.896,-3.9052,-3.9051,-3.9218,-3.9278,-3.9392,-3.9574,-3.9658,-3.9629,-3.993,-3.9845,-3.9855,-3.9866,-3.997,-3.9996,-4.002,-3.9713,-3.9712,-3.971,0,0,-3.8526,-3.8601,-3.8737,-3.8815,-3.8931,-3.8979,-3.9011,-3.9128,-3.9168,-3.9335,-3.9338,-3.9448,-3.9656,-3.9738,-3.9807,-4.0008,-4.0005,-4.0045,-4.0133,-4.0237,-4.0259,-4.0279,-4.0352,-4.0378,-4.0062,-4.0063,-4.0063,0,-3.8584,-3.8767,-3.8807,-3.8939,-3.9014,-3.9018,-3.9157,-3.9231,-3.9381,-3.9433,-3.9398,-3.966,-3.9737,-3.994,-3.9989,-4.0044,-4.0084,-4.0032,-4.0252,-4.0272,-4.0291,-4.0362,-4.039,-4.0067,-4.0066,-4.0066,-4.0066,0,-3.8834,-3.8961,-3.9057,-3.92,-3.9286,-3.9421,-3.9483,-3.9565,-3.9581,-3.9633,-3.9804,-3.9897,-4.0034,-4.0084,-4.0101,-4.0289,-4.0268,-4.0242,-4.0178,-4.0321,-4.0389,-4.0416,-4.0073,-4.0071,-4.007,-4.0069,0,0,-3.9029,-3.9192,-3.9227,-3.9293,-3.9422,-3.9522,-3.9657,-3.9791,-3.9861,-3.9964,-4.0081,-4.0257,-4.0235,-4.0313,-4.0339,-4.0431,-4.0587,-4.0394,-4.0397,-4.0428,-4.0802,-4.0822,-4.0853,-4.0585,-4.059,-4.0594,-4.0793,0,-3.9213,-3.9452,-3.9492,-3.9703,-3.9822,-3.9829,-3.9947,-4.004,-4.0092,-4.0202,-4.026,-4.0385,-4.0345,-4.0392,-4.0483,-4.0548,-4.0663,-4.0534,-4.0696,-4.0701,-4.0668,-4.0888,-4.0909,-4.1093,-4.082,-4.0824,-4.0828,0,-3.9459,-3.9568,-3.9791,-3.9905,-3.9957,-4.0063,-4.0189,-4.0293,-4.0399,-4.0431,-4.0519,-4.0535,-4.0678,-4.0607,-4.0806,-4.0718,-4.0786,-4.0828,-4.0837,-4.0855,-4.0774,-4.0914,-4.1152,-4.118,-4.0869,-4.0866,-4.0863,0,-3.9581,-3.9783,-3.9943,-3.9999,-4.0136,-4.0211,-4.0271,-4.0373,-4.0451,-4.0561,-4.0613,-4.0739,-4.0809,-4.0907,-4.0957,-4.09,-4.1153,-4.1086,-4.1186,-4.1185,-4.124,-4.1236,-4.1494,-4.1281,-4.128,-4.128,-4.1279,0,-3.9783,-3.992,-4.0,-4.0098,-4.0252,-4.0297,-4.0449,-4.0508,-4.0598,-4.071,-4.0723,-4.0827,-4.0887,-4.1001,-4.1041,-4.1201,-4.1232,-4.1263,-4.1272,-4.1263,-4.1259,-4.131,-4.1299,-4.1287,-4.1286,-4.1284,-4.1283,0,-3.9946,-4.0004,-4.0179,-4.0295,-4.0327,-4.0435,-4.0535,-4.0632,-4.0683,-4.0824,-4.086,-4.0942,-4.1077,-4.1136,-4.1303,-4.133,-4.1513,-4.1512,-4.1477,-4.1481,-4.1578,-4.1568,-4.1879,-4.1923,-4.1678,-4.168,-4.1682,0,-4.0072,-4.0177,-4.0303,-4.0378,-4.0441,-4.0562,-4.0641,-4.069,-4.0773,-4.0903,-4.0985,-4.1119,-4.123,-4.1446,-4.1521,-4.1649,-4.1653,-4.1752,-4.1672,-4.166,-4.1657,-4.1651,-4.1662,-4.1768,-4.177,-4.1772,-4.1774,0,-4.029,-4.0314,-4.0427,-4.0552,-4.0647,-4.0748,-4.0846,-4.0907,-4.0972,-4.1065,-4.1202,-4.1288,-4.1458,-4.1593,-4.1725,-4.1789,-4.1794,-4.1798,-4.1828,-4.1821,-4.1797,-4.1813,-4.1519,-4.1791,-4.1789,-4.1788,-4.1787,-4.1786,-4.044,-4.0534,-4.0638,-4.0765,-4.0844,-4.0936,-4.1033,-4.1097,-4.1212,-4.1353,-4.1375,-4.1523,-4.1628,-4.1807,-4.1876,-4.1993,-4.1969,-4.2012,-4.2024,-4.2034,-4.2041,-4.1776,-4.2018,-4.2017,-4.2017,-4.2016,-4.2016,0,-4.066,-4.0727,-4.0843,-4.0981,-4.1081,-4.1074,-4.1183,-4.1268,-4.1397,-4.1495,-4.1603,-4.1763,-4.1893,-4.1979,-4.2112,-4.219,-4.2195,-4.2223,-4.2219,-4.2234,-4.2054,-4.2016,-4.2217,-4.2216,-4.2216,-4.2216,-4.2216,-4.2216,-4.0787,-4.0947,-4.0983,-4.1183,-4.125,-4.1394,-4.1457,-4.1543,-4.1621,-4.1797,-4.1906,-4.196,-4.2054,-4.2194,-4.2314,-4.2336,-4.2386,-4.2416,-4.2437,-4.2267,-4.2246,-4.2227,-4.2191,-4.2425,-4.2426,-4.2607,-4.2609,-4.261]}]]